User: anonymous   Login
Location: San Gennaro Vesuviano
(40.8833°N, 14.5333°E)
Time: 12:06:53
(UTC+00:00)
Language:

SL-4 R/B - Orbit

View from above orbital plane
View from above orbital plane
View from above satellite
View from above satellite

Ground track
Ground track

The orbit data is extracted from the following two-line orbital elements,

1 39679U 14021B   21173.42968821  .00000065  00000-0  21399-4 0  9995
2 39679  51.6140 189.7808 0170299 148.2422 212.8956 15.07006681394806
Epoch (UTC): 22 June 2021 10:18:45
Eccentricity: 0.0170299
inclination: 51.6140°
perigee height: 427 km
apogee height: 663 km
right ascension of ascending node: 189.7808°
argument of perigee: 148.2422°
revolutions per day: 15.07006681
mean anomaly at epoch: 212.8956°
orbit number at epoch: 39480

The dashed part of the orbit path shows where the satellite is in the earth's shadow,  

DLR